AKDT,Max TemperatureF,Mean TemperatureF,Min TemperatureF,Max Dew PointF,MeanDew PointF,Min DewpointF,Max Humidity, Mean Humidity, Min Humidity, Max Sea Level PressureIn, Mean Sea Level PressureIn, Min Sea Level PressureIn, Max VisibilityMiles, Mean VisibilityMiles, Min VisibilityMiles, Max Wind SpeedMPH, Mean Wind SpeedMPH, Max Gust SpeedMPH,PrecipitationIn, CloudCover, Events, WindDirDegrees
2013-7-1,61,56,52,50,45,38,93,72,51,29.82,29.70,29.60,10,10,10,18,6,28,0.01,5,Rain,160
2013-7-2,64,56,50,47,43,37,77,62,48,29.90,29.73,29.61,10,10,10,13,7,24,0.00,5,,143
2013-7-3,60,55,50,47,43,39,89,66,47,30.02,29.99,29.91,10,10,10,21,4,26,0.00,8,,147
2013-7-4,55,52,50,49,45,39,86,73,57,30.06,30.03,30.01,10,10,10,16,7,,0.00,8,Rain,119
2013-7-5,64,56,48,47,44,40,90,67,45,30.09,30.06,30.03,10,10,10,18,5,25,0.00,8,Rain,133
2013-7-6,66,58,50,46,42,39,86,60,42,30.06,29.95,29.78,10,10,10,22,9,29,0.00,7,,112
2013-7-7,66,58,51,52,45,41,89,66,43,29.77,29.64,29.59,10,10,2,22,9,31,0.17,6,Rain,127
2013-7-8,59,54,48,49,48,45,100,86,60,29.85,29.75,29.69,10,8,2,9,2,,0.26,8,Rain,169
2013-7-9,66,58,50,50,48,44,96,73,45,30.04,29.95,29.86,10,10,10,9,2,,0.00,6,,246
2013-7-10,71,61,51,56,51,48,96,74,47,30.06,30.01,29.94,10,10,10,8,2,,0.01,6,Rain,349
2013-7-11,75,64,52,53,49,44,90,64,41,29.95,29.93,29.89,10,10,10,12,4,,0.00,2,,147
2013-7-12,78,65,53,57,50,45,89,62,41,29.97,29.94,29.89,10,10,10,13,4,,0.02,4,,125
2013-7-13,73,63,53,55,51,46,93,65,46,30.18,30.05,29.99,10,10,10,9,3,,0.00,4,,162
2013-7-14,69,60,52,54,52,47,89,70,59,30.31,30.28,30.21,10,10,10,8,4,,0.00,3,,226
2013-7-15,62,58,55,54,51,48,87,77,72,30.36,30.32,30.26,10,10,10,6,2,,0.00,7,,215
2013-7-16,68,60,53,55,53,51,94,80,63,30.26,30.21,30.14,10,10,10,7,1,,0.01,7,Rain,177
2013-7-17,69,62,55,58,53,49,83,74,65,30.15,30.11,30.08,10,10,10,6,2,,0.00,8,,148
2013-7-18,72,63,54,60,54,50,87,75,57,30.17,30.14,30.10,10,10,10,7,1,,0.00,7,,173
2013-7-19,71,64,59,56,54,52,87,70,57,30.18,30.15,30.12,10,10,10,10,3,,0.00,6,,319
2013-7-20,70,62,55,54,52,48,96,72,47,30.13,30.10,30.05,10,10,10,12,4,18,0.01,6,Rain,229
2013-7-21,78,62,46,52,47,42,93,61,30,30.06,29.99,29.91,10,10,10,15,6,22,0.00,1,,8
2013-7-22,80,67,54,53,48,43,75,52,36,30.09,30.03,29.98,10,10,10,25,10,31,0.00,0,,151
2013-7-23,78,64,52,56,50,46,86,61,41,30.12,30.08,30.02,10,10,10,9,4,,0.00,2,,109
2013-7-24,80,65,51,56,50,47,92,60,42,30.05,29.99,29.91,10,10,10,8,3,,0.00,1,,146
2013-7-25,75,65,55,59,55,47,97,73,52,30.08,30.00,29.96,10,9,2,12,3,,0.33,6,Rain,151
2013-7-26,72,63,55,60,56,52,94,80,65,30.30,30.21,30.09,10,10,10,8,3,,0.00,7,,174
2013-7-27,71,64,57,59,56,52,90,79,64,30.36,30.33,30.30,10,10,10,6,2,,0.00,8,,136
2013-7-28,75,66,57,60,55,51,84,72,57,30.31,30.25,30.15,10,10,10,7,1,,0.00,5,,159
2013-7-29,75,64,52,61,55,49,93,71,60,30.20,30.17,30.13,10,10,10,6,1,,0.00,2,,178
2013-7-30,75,64,53,60,55,48,93,74,57,30.22,30.20,30.15,10,10,10,7,2,,0.00,3,,181
2013-7-31,73,64,55,59,54,50,93,73,59,30.23,30.18,30.11,10,10,10,9,2,,0.00,5,,175